{"data":{"norad_id":62025,"epoch":"2026-05-24T13:34:19.889472Z","epoch_age_seconds":108996,"freshness":"FRESH","line1":"1 62025U 24213T   26144.56550798  .00003680  00000+0  12002-3 0  9993","line2":"2 62025  53.1588 175.5573 0001045  83.9283 276.1839 15.34392774 84770","mean_motion":15.34392774,"eccentricity":0.0001045,"inclination_deg":53.1588,"raan_deg":175.5573,"arg_perigee_deg":83.9283,"mean_anomaly_deg":276.1839,"bstar":0.00012002,"rev_number":8477,"period_min":93.848200043726,"perigee_km":462.00984743673,"apogee_km":463.43958753568,"semimajor_km":6840.8617174862,"source":"CELESTRAK","updated_at":"2026-05-25T13:38:19.522536Z"}}